Regional Weather Roundup
Issued by NWS

Home | Current Version | Previous Version | Text Only | Print | Product List | Glossary On
Versions: 1 2 3 4 5 6 7 8 9 10 11 12 13 14 15 16 17 18 19 20 21 22 23 24 25 26 27 28 29 30 31 32 33 34 35 36 37 38 39 40 41 42 43 44 45 46 47 48 49 50
000
ASUS44 KMEG 302110
RWRTN
TENNESSEE HOURLY STATE WEATHER ROUNDUP
NATIONAL WEATHER SERVICE MEMPHIS TN
400 PM CDT SUN APR 30 2017

TNZ002-004-019-021-049-052-054-088>092-302200-
WEST TENNESSEE

CITY           SKY/WX    TMP DP  RH WIND       PRES   REMARKS
MEMPHIS INTL   CLOUDY    70  67  90 S17G23    29.70S
NWS MEMPHIS      N/A     70 N/A N/A MISG        N/A
JACKSON        CLOUDY    73  69  87 S9G18     29.71F
SOMERVILLE     CLOUDY    72  66  83 S17G24    29.71S
UNION CITY     PTSUNNY   73  68  83 S14G22    29.68F
BOLIVAR        PTSUNNY   72  66  83 S14G20    29.73R
HUNTINGDON     PTSUNNY   75  68  78 S10G21    29.71F
LEXINGTON      CLOUDY    72  66  83 S8G18     29.75S
SAVANNAH       MOSUNNY   72  66  83 S10G31    29.76R
$$

TNZ008-025-027-028-033-062-065-066-302200-
NORTH MIDDLE TENNESSEE

CITY           SKY/WX    TMP DP  RH WIND       PRES   REMARKS
NASHVILLE      LGT RAIN  67  63  87 S17G33    29.85F
PORTLAND       PTSUNNY   68  64  88 S13       29.86R HAZE
CLARKSVILLE    CLOUDY    72  65  78 SE17G29   29.75F
SMYRNA         TSTM      67  63  87 SE14G22   29.88R FOG
COOKEVILLE     MOSUNNY   81  64  57 S22G30    29.90F
GALLATIN       PTSUNNY   68  63  83 S15G22    29.91R HAZE
CROSSVILLE     CLOUDY    75  61  61 S15G26    30.00S
$$

TNZ061-075-076-078-094-096-097-302200-
SOUTH MIDDLE TENNESSEE

CITY           SKY/WX    TMP DP  RH WIND       PRES   REMARKS
FAYETTEVILLE     N/A     66  64  94 SE12      29.89S
TULLAHOMA      CLOUDY    66  61  82 S9        29.95R
WINCHESTER     PTSUNNY   77  64  65 W22       29.97R
MCMINNVILLE    MOSUNNY   81  64  57 S8        29.90F
COLUMBIA       MOSUNNY  N/A N/A N/A SE8       29.78F
SHELBYVILLE    PTSUNNY   68  66  94 SE7       29.91R
$$

TNZ017-018-042-046-047-302200-
NORTHEAST TENNESSEE

CITY           SKY/WX    TMP DP  RH WIND       PRES   REMARKS
TRI CITIES     PTSUNNY   84  56  38 S10G22    30.02F
ELIZABETHTON   MOSUNNY   82  55  39 S9G15     30.04S
$$

TNZ012-013-036-069-073-074-302200-
CENTRAL EAST TENNESSEE

CITY           SKY/WX    TMP DP  RH WIND       PRES   REMARKS
KNOXVILLE      NOT AVBL
OAK RIDGE      PTSUNNY   84  57  39 S8        29.98F
DOWNTOWN KNOXV SUNNY     84  57  39 S6G13     29.95F
GATLINBURG     MOSUNNY   84  54  34 SW8       29.96F
MORRISTOWN     SUNNY     82  57  42 SW9       29.97F
JACKSBORO      MOSUNNY   82  61  47 SW10G18   29.99F
$$

TNZ083-085-099-302200-
SOUTHEAST TENNESSEE

CITY           SKY/WX    TMP DP  RH WIND       PRES   REMARKS
CHATTANOOGA    CLOUDY    81  64  56 SE14G25   29.95F
$$

SKY/WX REPORTED AS FAIR MEANS FEW OR NO CLOUDS BELOW
12 THOUSAND FEET.





USA.gov is the U.S. government's official web portal to all federal, state and local government web resources and services.